weather.gov     
National Weather Service

Regional Weather Roundup
NWS Homepage
This page is being discontinued on March 12, 2014.
The same data is available at this site. Please update your bookmarks.
Thank you, and we apologize for the inconvenience.
Please send an email to SR-SRH.Webmaster@noaa.gov with any concerns.


Current Version
Previous Version:    01  02  03  04  05  06  07  08  09  10  11  12  13  14  15  16  17  18  19  20  21  22  23  24  25  26  27  28  29  30  
   31  32  33  34  35  36  37  38  39  40  41  42  43  44  45  46  47  48  49  50  51  52  53  
[Printable]
496
ASUS46 KSGX 260010
RWRSGX

SAN DIEGO HOURLY WEATHER ROUNDUP
NATIONAL WEATHER SERVICE SAN DIEGO CA
400 PM PST TUE NOV 25 2014

NOTE: "FAIR" INDICATES FEW OR NO CLOUDS BELOW 12,000 FEET WITH NO
SIGNIFICANT WEATHER AND/OR OBSTRUCTIONS TO VISIBILITY.

CAZ042-043-060-061-PZZ750-775-260100-

GREATER SAN DIEGO AREA

CITY           SKY/WX    TMP DP  RH WIND       PRES   REMARKS
LINDBERGH FLD  CLEAR     76  14   9 NW3       30.26S
POINT LOMA       N/A     70  31  23 NW14        N/A
NATIONAL CITY    N/A     76  33  21 NW3       30.25S
CHULA VISTA      N/A     76  36  23 W5        30.18S
IMPERIAL BEACH CLEAR     72  42  34 NW12      30.25S
BROWN FIELD    CLEAR     73  26  17 W8        30.25S
MIRAMAR MCAS   CLEAR     75  15  10 NW9       30.26S
MONTGOMERY FLD CLEAR     75  16  10 NW13      30.26S

$$

NORTH SAN DIEGO COUNTY

CITY           SKY/WX    TMP DP  RH WIND       PRES   REMARKS
CAMP PENDLETON CLEAR     76   5   6 CALM      30.24S
OCEANSIDE AP   CLEAR     74  23  15 W6        30.24S
OCEANSIDE HBR    N/A     69  55  60 NW3       30.27S
VISTA            N/A     76  21  13 W3        30.24S
CARLSBAD       CLEAR     72  35  25 SW6       30.25S
DEL MAR          N/A     70  40  33 CALM      30.28S
FALLBROOK        N/A     78   6   6 SW3       30.26S
ESCONDIDO        N/A     74  24  15 SW3       30.26S
SAN MARCOS       N/A     76  27  16 NW1       30.24S
POWAY            N/A     74  28  18 CALM      30.27S

$$

EAST SAN DIEGO COUNTY

CITY           SKY/WX    TMP DP  RH WIND       PRES   REMARKS
RAMONA         CLEAR     72  22  15 W8        30.27F
SANTEE LAKES     N/A     76  27  16 CALM      30.26F
LA MESA          N/A     75  30  19 W6        30.19S
JAMUL            N/A     76  22  13 CALM      30.25R
DESCANSO N       N/A     69  14  12 CALM      30.18F
MT. LAGUNA OBS   N/A     59   3  10 N2        29.94R
CAMPO            N/A     65   1   8 E15       30.28S

$$

ORANGE COUNTY AND THE LOS ANGELES BASIN

CITY           SKY/WX    TMP DP  RH WIND       PRES   REMARKS
JOHN WAYNE AP  CLEAR     78  17  10 W6        30.25S
LAKE FOREST FR   N/A     75  24  15 W5        30.15S
SANTA ANA        N/A     78  29  17 SW1       30.20S
HUNTINGTON BCH   N/A     71  48  44 W9        30.27F
LOS ALAMITOS   CLEAR     75  20  12 SW10      30.25S
FULLERTON      CLEAR     80   8   6 W3        30.24F
LONG BEACH     CLEAR     77  19  11 W9        30.25F
L.A. AP        CLEAR     69  37  30 W9        30.27S
L.A. DOWNTOWN  CLEAR     74  13   9 W3        30.25S

$$

THE INLAND EMPIRE

CITY           SKY/WX    TMP DP  RH WIND       PRES   REMARKS
CORONA         CLEAR     78  13   8 CALM      30.26S
CHINO          CLEAR     74  36  25 W3        30.27S
ONTARIO        CLEAR     77   6   6 W5        30.27S
SAN BERNARDINO CLEAR     75  10   8 CALM      30.27S
RIVERSIDE AP   CLEAR     79   2   5 CALM      30.27S
RIV CYN CREST    N/A     80  32  17 CALM        N/A
MORENO VALLEY    N/A     76  19  11 SE3       29.45F
MARCH ARB      CLEAR     73   6   7 E3        30.29S
HORSETHIEF CYN   N/A     75   4   6 SW3       30.30S
PERRIS           N/A     72  20  14 NE1       30.29S
MENIFEE          N/A     77  21  12 N1        30.34S
HEMET EAST       N/A     76   8   7 CALM      30.29S
FRENCH VALLEY  FAIR      75   7   7 N3        30.28S
TEMECULA         N/A     77  13   9 S3        30.21S

$$

SAN BERNARDINO AND RIVERSIDE COUNTY MOUNTAINS

CITY           SKY/WX    TMP DP  RH WIND       PRES   REMARKS
BIG BEAR AP    CLEAR     55   3  12 N6        30.49S
ANGELUS OAKS     N/A     55  17  22 CALM      30.33S
PINE COVE        N/A     56   5  13 S1        30.27S

$$

SOUTHERN DESERT INCLUDING THE COACHELLA VALLEY

CITY           SKY/WX    TMP DP  RH WIND       PRES   REMARKS
PALM SPRINGS   CLEAR     72  18  13 E3        30.33S
PALM DESERT      N/A     72  27  19 CALM      29.20R
THERMAL        CLEAR     70  25  18 S6        30.30S
BLYTHE         CLEAR     69  14  12 SE6       30.31F
IMPERIAL AP    CLEAR     71  20  14 W3        30.30F
EL CENTRO NAS  CLEAR     72  11   9 S3        30.30F
YUMA AZ        CLEAR     73   7   7 N3        30.29F
MEXICALI       CLEAR     73   3   6 CALM      30.31

$$

UPPER DESERT

CITY           SKY/WX    TMP DP  RH WIND       PRES   REMARKS
VICTORVILLE AP CLEAR     64   5   9 NE3       30.38S
HESPERIA         N/A     64  10  12 CALM      30.53S
APPLE VALLEY     N/A     66   5   9 CALM      30.36F
PALMDALE       CLEAR     66   9  10 NE3       30.36F
LANCASTER      CLEAR     65   9  11 E6        30.36S
EDWARDS AFB    CLEAR     66   3   8 E2        30.35S
DAGGETT        CLEAR     68   2   7 W3        30.35F
29 PALMS N     CLEAR     67   5   8 CALM      30.40F
NEEDLES        CLEAR     68  11  11 N5        30.32F

$$

REGIONAL REPORTS

CITY           SKY/WX    TMP DP  RH WIND       PRES   REMARKS
SANTA BARBARA  CLEAR     71  30  21 W8        30.26F
SANDBERG       CLEAR     64  -4   6 N20G28    30.42S
MT. WILSON       N/A     63   1   8 NE1         N/A
LAS VEGAS NV   CLEAR     61  13  15 SE6       30.32S
PHOENIX AZ     CLEAR     67   3   8 SW5       30.28F
TIJUANA        CLEAR     75  14   9 S12       30.27S
ENSENADA NW      N/A     73  32  22 CALM      30.22R

$$

OFFSHORE ISLANDS

CITY           SKY/WX    TMP DP  RH WIND       PRES   REMARKS
CATALINA ARPT  CLEAR     89  19   7 W8        30.32F
SAN CLEMENTE I CLEAR     73  27  18 NW7       30.29S
SAN NICOLAS IS CLEAR     70  26  19 NW7       30.29F

$$

MARINE AND OFFSHORE BUOY REPORTS

STATION/POSITION SKY/WX   TEMP    WIND        PRES    SWELL
                          AIR SEA DIR/SP/G            HT/PER/DIR
                          (F)     (DEG/KT/KT) (MB)    (FT/S/D)
TANNER BANKS               67 66  340/  2/  4 1025.5S   7/300/12
S CLEMENTE BASIN           67 67  340/  8/ 10 1024.8F   5/300/14
SAN NICOLAS IS.               65                N/A     5/300/14
SO. S. ROSA ISLA           65 65  290/  4/  6 1025.0F   5/15
W. S. BARBARA CH           64 64  300/ 10/ 12 1025.1F   7/300/14
M. S. BARBARA CH           67 67  300/  6/  6 1025.8F
S. MONICA BASIN            68 67  260/ 10/ 10 1025.4F   3/260/13
S PEDRO CHANNEL               65                N/A     3/270/13
DANA POINT                    66                N/A     2/280/13
CMP PENDLETON NS              65                N/A     2/240/11
OCEANSIDE OFFSHR              67                N/A     2/260/13
TORREY PINES OTR              67                N/A     2/270/13
LA JOLLA 1                 69 66  350/  4/  4 1024.6R
MISSION BAY BUOY              67                N/A     3/280/13
SAN DIEGO BAY                 67              1024.8S
POINT LOMA SOUTH              67                N/A     3/270/13

$$





U.S. Dept. of Commerce
NOAA National Weather Service
1325 East West Highway
Silver Spring, MD 20910
E-mail: w-nws.webmaster@noaa.gov
Page last modified: May 16, 2007
NATIONAL WEATHER SERVICE: for Safety, for Work, for Fun - FOR LIFE